Hourly Weather Alexandria

Today, 8 March, Monday

Time Temperature Precipitation Wind Pressure Humidity
00:00 +4°C° 0 mm 1 mps 758 mmHg 62%
01:00 +3°C° 0 mm 1 mps 757 mmHg 64%
02:00 +3°C° 0 mm 1 mps 757 mmHg 65%
03:00 +3°C° 0 mm 1 mps 756 mmHg 67%
04:00 +2°C° 0 mm 1 mps 756 mmHg 68%
05:00 +2°C° 0 mm 1 mps 756 mmHg 69%
06:00 +2°C° 0 mm 1 mps 755 mmHg 68%
07:00 +3°C° 0 mm 1 mps 755 mmHg 66%
08:00 +3°C° 0 mm 1 mps 755 mmHg 65%
09:00 +4°C° 0 mm 2 mps 755 mmHg 59%
10:00 +6°C° 0 mm 2 mps 755 mmHg 53%
11:00 +7°C° 0 mm 3 mps 755 mmHg 46%
12:00 +9°C° 0 mm 3 mps 754 mmHg 43%
13:00 +10°C° 0 mm 4 mps 754 mmHg 39%
14:00 +11°C° 0 mm 4 mps 753 mmHg 36%
15:00 +11°C° 0 mm 4 mps 753 mmHg 35%
16:00 +11°C° 0 mm 4 mps 753 mmHg 35%
17:00 +11°C° 0 mm 4 mps 753 mmHg 34%
18:00 +10°C° 0 mm 4 mps 753 mmHg 38%
19:00 +8°C° 0 mm 3 mps 753 mmHg 42%
20:00 +7°C° 0 mm 3 mps 754 mmHg 46%
21:00 +5°C° 0 mm 3 mps 754 mmHg 49%
22:00 +5°C° 0 mm 3 mps 755 mmHg 53%
23:00 +4°C° 0 mm 3 mps 755 mmHg 57%

Tomorrow, 9 March, Tuesday

Time Temperature Precipitation Wind Pressure Humidity
00:00 +5°C° 0 mm 2 mps 755 mmHg 59%
01:00 +4°C° 0 mm 2 mps 756 mmHg 60%
02:00 +3°C° 0 mm 2 mps 756 mmHg 62%
03:00 +2°C° 0 mm 3 mps 756 mmHg 66%
04:00 0°C° 0 mm 4 mps 756 mmHg 70%
05:00 0°C° 0 mm 5 mps 756 mmHg 74%
06:00 0°C° 0 mm 5 mps 757 mmHg 74%
07:00 -1°C° 0 mm 5 mps 757 mmHg 74%
08:00 -1°C° 0 mm 5 mps 758 mmHg 74%
09:00 +1°C° 0 mm 5 mps 758 mmHg 69%
10:00 +2°C° 0 mm 5 mps 758 mmHg 64%
11:00 +3°C° 0 mm 5 mps 758 mmHg 58%
12:00 +5°C° 0 mm 4 mps 758 mmHg 55%
13:00 +6°C° 0 mm 4 mps 757 mmHg 51%
14:00 +7°C° 0 mm 4 mps 757 mmHg 47%
15:00 +8°C° 0 mm 3 mps 757 mmHg 47%
16:00 +8°C° 0 mm 3 mps 757 mmHg 47%
17:00 +8°C° 0 mm 3 mps 756 mmHg 47%
18:00 +7°C° 0 mm 3 mps 757 mmHg 52%
19:00 +5°C° 0 mm 3 mps 757 mmHg 56%
20:00 +4°C° 0 mm 3 mps 757 mmHg 60%
21:00 +4°C° 0 mm 3 mps 757 mmHg 63%
22:00 +4°C° 0 mm 4 mps 757 mmHg 66%
23:00 +4°C° 0 mm 4 mps 757 mmHg 69%

Day after tomorrow, 10 March, Wednesday

Time Temperature Precipitation Wind Pressure Humidity
00:00 +4°C° 0 mm 4 mps 757 mmHg 72%
01:00 +3°C° 0 mm 4 mps 757 mmHg 75%
02:00 +3°C° 0 mm 4 mps 757 mmHg 78%
03:00 +3°C° 0.4 mm 4 mps 757 mmHg 82%
04:00 +3°C° 0.4 mm 4 mps 756 mmHg 86%
05:00 +3°C° 0.4 mm 4 mps 756 mmHg 90%
06:00 +3°C° 0.8 mm 4 mps 756 mmHg 92%
07:00 +3°C° 0.8 mm 4 mps 756 mmHg 94%
08:00 +3°C° 0.8 mm 4 mps 756 mmHg 95%
09:00 +3°C° 1 mm 4 mps 756 mmHg 95%
10:00 +1°C° 1 mm 5 mps 756 mmHg 95%
11:00 +1°C° 1 mm 5 mps 756 mmHg 95%
12:00 +1°C° 0.8 mm 5 mps 756 mmHg 95%
13:00 +1°C° 0.8 mm 5 mps 756 mmHg 95%
14:00 +1°C° 0.8 mm 4 mps 756 mmHg 95%
15:00 +1°C° 0.5 mm 4 mps 756 mmHg 95%
16:00 +1°C° 0.5 mm 4 mps 756 mmHg 96%
17:00 +2°C° 0.5 mm 3 mps 756 mmHg 96%
18:00 +2°C° 0.1 mm 3 mps 756 mmHg 96%
19:00 +3°C° 0.1 mm 2 mps 757 mmHg 96%
20:00 +3°C° 0.1 mm 2 mps 757 mmHg 95%
21:00 +3°C° 0 mm 2 mps 758 mmHg 94%
22:00 +4°C° 0 mm 1 mps 758 mmHg 93%
23:00 +4°C° 0 mm 1 mps 759 mmHg 92%

11 March, Thursday

Time Temperature Precipitation Wind Pressure Humidity
00:00 +4°C° 0 mm 1 mps 759 mmHg 91%
01:00 +4°C° 0 mm 1 mps 759 mmHg 91%
02:00 +3°C° 0 mm 0 mps 759 mmHg 91%
03:00 +2°C° 0 mm 0 mps 759 mmHg 91%
04:00 +2°C° 0 mm 0 mps 759 mmHg 91%
05:00 +2°C° 0 mm 0 mps 759 mmHg 91%
06:00 +3°C° 0 mm 0 mps 760 mmHg 90%
07:00 +3°C° 0 mm 0 mps 760 mmHg 88%
08:00 +3°C° 0 mm 0 mps 761 mmHg 87%
09:00 +5°C° 0 mm 1 mps 761 mmHg 82%
10:00 +6°C° 0 mm 1 mps 761 mmHg 78%
11:00 +5°C° 0 mm 2 mps 761 mmHg 74%
12:00 +6°C° 0 mm 2 mps 761 mmHg 68%
13:00 +7°C° 0 mm 2 mps 760 mmHg 62%
14:00 +8°C° 0 mm 2 mps 760 mmHg 56%
15:00 +8°C° 0 mm 2 mps 760 mmHg 54%
16:00 +8°C° 0 mm 2 mps 759 mmHg 51%
17:00 +9°C° 0 mm 2 mps 759 mmHg 49%
18:00 +9°C° 0 mm 1 mps 759 mmHg 54%
19:00 +8°C° 0 mm 1 mps 759 mmHg 59%
20:00 +7°C° 0 mm 1 mps 760 mmHg 64%
21:00 +6°C° 0 mm 1 mps 759 mmHg 65%
22:00 +5°C° 0 mm 2 mps 759 mmHg 66%
23:00 +5°C° 0 mm 2 mps 759 mmHg 68%

12 March, Friday

Time Temperature Precipitation Wind Pressure Humidity
00:00 +5°C° 0 mm 2 mps 759 mmHg 68%
01:00 +4°C° 0 mm 2 mps 758 mmHg 68%
02:00 +4°C° 0 mm 2 mps 758 mmHg 68%
03:00 +4°C° 0 mm 2 mps 757 mmHg 70%
04:00 +4°C° 0 mm 2 mps 757 mmHg 71%
05:00 +5°C° 0 mm 1 mps 756 mmHg 72%
06:00 +5°C° 0 mm 1 mps 756 mmHg 71%
07:00 +5°C° 0 mm 1 mps 756 mmHg 70%
08:00 +6°C° 0 mm 1 mps 756 mmHg 69%
09:00 +7°C° 0 mm 1 mps 756 mmHg 63%
10:00 +8°C° 0 mm 2 mps 756 mmHg 57%
11:00 +9°C° 0 mm 3 mps 756 mmHg 51%
12:00 +10°C° 0 mm 4 mps 755 mmHg 49%
13:00 +11°C° 0 mm 4 mps 755 mmHg 46%
14:00 +13°C° 0 mm 5 mps 755 mmHg 44%
15:00 +13°C° 0 mm 5 mps 754 mmHg 46%
16:00 +13°C° 0 mm 4 mps 754 mmHg 48%
17:00 +12°C° 0 mm 4 mps 754 mmHg 51%
18:00 +11°C° 0 mm 4 mps 754 mmHg 55%
19:00 +10°C° 0 mm 4 mps 755 mmHg 60%
20:00 +8°C° 0 mm 4 mps 755 mmHg 65%
21:00 +9°C° 0 mm 3 mps 755 mmHg 69%
22:00 +8°C° 0 mm 3 mps 755 mmHg 72%
23:00 +8°C° 0 mm 3 mps 755 mmHg 76%

13 March, Saturday

Time Temperature Precipitation Wind Pressure Humidity
00:00 +7°C° 0 mm 2 mps 755 mmHg 78%
01:00 +7°C° 0 mm 2 mps 755 mmHg 80%
02:00 +7°C° 0 mm 2 mps 755 mmHg 82%
03:00 +7°C° 0 mm 1 mps 755 mmHg 82%
04:00 +7°C° 0 mm 1 mps 755 mmHg 83%
05:00 +7°C° 0 mm 1 mps 755 mmHg 83%
06:00 +7°C° 0 mm 1 mps 755 mmHg 82%
07:00 +8°C° 0 mm 1 mps 755 mmHg 80%
08:00 +8°C° 0 mm 1 mps 755 mmHg 78%
09:00 +9°C° 0 mm 2 mps 755 mmHg 73%
10:00 +10°C° 0 mm 2 mps 755 mmHg 67%
11:00 +12°C° 0 mm 2 mps 755 mmHg 61%
12:00 +13°C° 0 mm 2 mps 755 mmHg 58%
13:00 +13°C° 0 mm 3 mps 754 mmHg 55%
14:00 +14°C° 0 mm 3 mps 754 mmHg 52%
15:00 +14°C° 0 mm 3 mps 753 mmHg 54%
16:00 +13°C° 0 mm 3 mps 753 mmHg 56%
17:00 +13°C° 0 mm 3 mps 753 mmHg 58%
18:00 +12°C° 0 mm 3 mps 752 mmHg 62%
19:00 +11°C° 0 mm 3 mps 752 mmHg 66%
20:00 +10°C° 0 mm 3 mps 752 mmHg 71%
21:00 +10°C° 0 mm 2 mps 752 mmHg 72%
22:00 +9°C° 0 mm 2 mps 752 mmHg 73%
23:00 +9°C° 0 mm 2 mps 752 mmHg 75%
Show more

We Need Your Consent

Meteoprog and our Service Providers may store and access personal data such as cookies, device identifiers or other similar technologies on your device and process such data to personalise content and ads, as well as provide social media features and to analyse the traffic.

  • Store and/or access information on your device

    Cookies, device identifiers or other information can be stored or accessed on your device for the purposes indicated above.

  • Personalised ads and content, ad and content measurement, audience insights, and products development

    Ads and content can be personalised based on a profile. More data can be added to better personalise ads and content. Ad and content performance can be measured. Insights about the audience who saw the ads and content can be derived. Such data can be used to develop or improve user’s experience, systems and software.

By clicking ‘I Agree’ you will allow the use of indicated cookies, device identifiers, web beacons or other similar technologies. Your settings can be changed in the browser on your device.

For certain purposes, legitimate interests may be relied on, rather than consent. You can read more about this in our Privacy and Cookie Policy.